Vorticity
8 7 8 9 11 12 10 10 11 9 6 8 9 7 8 10 9 8 5 1 0 6 7 2 5 11 11 12 9 3 -2 -2 3 8 8 7 5 6 8 9 4 2 8 3 -1 8 9 7 8 7 7 7 6 7 6 7 6 7 8 6 5 6 5 4 2 4 8 9 10 9 6 8 10 6 6 12 18 20 16 7 5 20 24 13 6 4
8 7 9 10 11 10 9 9 10 9 7 8 7 6 9 10 10 6 -1 -0 4 8 6 -1 -1 4 8 8 5 2 -1 0 7 9 9 9 8 6 3 2 1 2 7 5 4 10 8 6 8 7 7 8 6 5 5 7 8 9 11 9 8 6 4 2 1 4 7 8 12 15 12 8 6 5 9 16 15 14 15 4 5 26 23 8 6 4
7 8 10 11 9 5 3 5 8 9 8 7 5 6 11 13 11 5 1 4 7 4 2 2 -0 -1 6 6 -1 2 6 5 6 7 7 7 4 1 0 -0 1 4 8 8 7 6 4 5 9 9 8 8 5 4 4 5 7 8 10 10 10 8 5 7 7 6 6 8 11 14 15 10 8 7 6 17 21 13 10 5 11 26 16 6 9 5
9 12 13 11 8 5 6 10 9 8 8 6 5 9 12 13 10 3 2 5 6 5 3 3 -0 -4 2 4 -4 -1 7 8 8 10 5 1 2 7 10 5 2 8 12 10 8 7 7 7 8 7 7 6 5 5 4 5 6 7 8 8 8 9 8 9 11 10 8 8 7 8 12 7 5 11 10 18 27 17 7 7 19 24 8 6 13 6
10 13 13 11 9 7 8 12 11 8 9 7 7 13 12 8 6 2 3 4 5 7 3 -0 1 -4 -9 -5 -0 1 11 16 10 8 4 -0 4 10 15 10 4 6 7 5 5 4 2 3 4 5 4 5 6 6 6 6 6 7 8 8 8 8 9 11 11 10 9 6 3 3 8 5 1 11 13 13 23 22 13 11 22 22 5 7 15 7
11 12 11 9 9 9 7 10 11 9 9 7 8 15 12 5 3 2 3 5 6 8 5 3 3 -4 -14 -8 2 4 15 21 8 4 7 7 8 7 7 7 6 5 0 -1 1 -1 1 3 2 2 2 3 5 6 7 7 8 10 11 10 11 9 6 7 8 9 8 6 6 4 8 10 7 9 12 19 30 25 12 12 21 17 3 7 14 8
11 12 12 11 9 9 7 8 10 8 8 5 6 12 7 1 3 3 4 5 4 5 5 4 1 -3 -5 -2 3 5 13 13 2 2 7 10 13 12 9 6 7 7 0 2 3 -0 5 5 3 8 11 10 8 7 6 9 14 16 14 10 8 8 6 6 7 8 7 6 8 9 10 14 12 6 8 27 38 21 11 18 20 15 7 6 8 6
11 10 11 10 9 10 8 8 10 8 8 7 7 10 6 2 2 1 3 4 2 1 2 4 2 -3 -2 2 4 5 8 5 0 1 2 5 7 6 6 6 7 4 1 5 1 1 11 6 1 11 18 16 11 8 9 15 22 20 21 23 18 12 6 5 7 8 9 8 8 10 13 17 15 7 4 17 27 16 14 22 18 14 10 3 5 6
11 10 11 10 8 10 9 9 10 6 8 10 8 9 10 8 4 2 4 3 2 5 4 4 1 -5 -2 7 8 4 5 4 1 3 4 6 3 -2 -1 5 9 7 5 6 1 8 19 8 -2 5 15 14 5 6 11 13 15 8 1 3 8 18 17 10 8 5 5 9 9 9 11 15 15 9 4 10 21 17 12 17 17 15 10 2 4 8
10 9 10 9 7 8 11 11 10 7 6 8 7 8 10 10 7 5 4 2 4 8 5 2 -3 -6 1 10 8 2 3 3 1 3 6 7 6 4 3 4 8 12 11 8 5 8 11 3 -1 3 11 12 2 6 13 4 3 9 7 -8 -16 -0 12 8 9 7 5 9 11 10 9 12 15 12 4 2 12 16 11 15 19 15 10 6 5 8
9 9 7 8 7 6 10 10 10 10 7 5 6 7 8 8 8 7 4 3 7 7 0 -3 -3 -1 5 7 6 4 3 3 2 2 4 7 8 9 9 3 5 13 13 10 8 8 6 5 7 10 13 11 -0 3 15 6 -2 9 22 20 7 1 1 1 6 8 6 6 8 10 7 6 12 16 9 -2 0 11 14 16 21 17 11 9 7 8
8 9 8 12 11 6 8 10 12 13 9 6 6 7 8 8 9 10 5 1 6 6 -3 -2 3 4 5 3 3 6 3 1 2 3 7 11 11 10 7 3 6 11 10 9 7 5 5 4 6 12 12 8 -3 -2 7 4 5 7 -3 1 12 8 8 14 11 9 12 12 11 10 6 2 5 14 15 6 -1 7 13 11 15 19 14 10 13 15
10 9 10 12 12 9 7 8 11 12 10 8 5 5 6 6 6 8 5 -0 3 4 -3 2 8 2 1 3 2 1 -1 -1 0 4 11 15 16 13 8 6 8 8 6 7 7 4 3 1 3 8 5 -0 -3 -0 2 -2 13 29 11 3 9 2 6 15 13 21 25 15 11 8 3 3 7 12 15 12 3 1 8 9 9 16 14 10 16 17
11 10 8 8 10 9 6 4 6 6 6 6 5 4 4 3 4 4 4 1 5 7 -1 2 7 -2 -4 2 3 2 2 7 9 7 10 14 16 14 11 11 10 7 6 5 4 4 4 3 4 7 3 1 3 5 8 4 9 22 20 16 12 5 10 9 11 37 34 10 14 18 8 7 11 14 15 14 6 -2 8 13 9 16 16 9 12 14
10 8 5 5 6 5 5 3 2 3 5 6 7 8 8 8 8 9 10 6 8 9 1 1 5 0 -1 2 6 11 10 11 12 10 9 12 14 13 11 12 11 9 9 8 8 9 9 8 7 7 4 6 12 11 12 13 10 12 15 11 7 9 16 7 9 40 37 8 6 10 7 8 10 14 16 13 7 3 13 15 5 11 19 12 10 13
6 7 6 6 5 5 7 6 5 5 6 8 7 7 10 12 14 19 22 19 18 14 6 6 10 10 12 11 11 19 21 14 9 9 10 11 13 14 11 12 12 10 10 9 10 11 11 10 6 6 5 4 11 12 11 13 10 12 13 7 6 7 7 6 10 28 32 12 -5 -12 -6 6 8 10 15 13 6 4 10 15 10 7 10 12 12 15
6 7 6 4 6 10 10 10 13 12 9 12 11 8 10 11 13 17 21 21 20 20 17 17 16 13 12 8 3 6 11 13 10 7 9 10 11 12 10 10 10 9 8 6 7 7 6 7 5 6 9 8 9 9 10 11 9 14 13 4 4 4 3 11 17 21 25 18 6 -4 -4 7 8 6 12 11 6 3 0 13 26 14 4 9 11 11
12 10 7 7 10 15 13 10 14 14 12 15 18 19 16 13 12 11 12 13 12 14 15 13 10 6 4 4 4 -0 -2 5 11 9 10 10 9 8 7 6 6 7 10 11 12 13 11 12 12 10 9 7 7 9 11 12 12 14 15 9 8 8 6 8 13 21 24 16 11 8 8 16 14 8 15 14 8 3 -5 7 28 19 6 11 11 8
16 10 8 11 9 9 11 10 9 10 8 8 13 20 19 14 15 13 9 8 7 5 5 5 6 5 4 5 7 6 1 2 9 12 12 9 7 6 5 6 9 9 11 12 12 12 10 9 7 5 5 4 8 13 15 21 29 29 21 15 15 17 16 10 9 21 30 25 17 13 13 16 10 8 15 15 11 6 -4 5 22 18 13 16 12 11
17 7 4 9 7 6 9 6 2 6 8 3 4 14 15 10 13 15 13 12 10 6 3 2 4 6 8 8 6 7 5 3 6 9 9 8 6 7 7 9 12 10 7 8 8 10 11 9 6 6 11 13 16 18 11 10 24 34 27 17 14 18 22 21 19 22 29 31 24 16 13 9 6 9 12 12 15 9 -2 3 14 16 19 19 10 8
14 5 1 8 8 6 9 5 -2 1 6 4 7 13 11 7 8 9 10 12 12 13 13 10 8 8 9 9 7 7 8 9 12 11 12 12 10 10 11 10 11 8 5 8 11 13 16 19 21 19 22 25 21 17 17 14 14 20 21 16 10 11 14 18 23 22 21 26 30 25 13 3 4 12 14 13 16 13 3 2 9 16 23 19 8 5
13 6 2 8 5 -1 4 9 5 7 9 7 13 17 7 2 5 4 5 8 8 10 14 14 13 11 8 6 6 7 9 10 12 10 10 11 8 8 9 10 9 5 4 14 22 21 16 18 22 19 20 27 16 2 8 17 11 7 11 13 12 12 12 14 20 23 20 22 30 28 16 5 4 13 18 12 9 13 9 2 5 15 21 16 7 6
13 10 5 8 9 1 1 6 7 15 19 9 10 19 12 2 2 1 1 7 10 7 6 7 8 6 6 8 7 8 12 12 12 11 8 5 6 8 10 10 10 7 7 15 22 19 13 12 13 10 11 18 14 1 2 8 4 0 2 4 5 7 8 7 10 20 27 26 22 19 18 10 3 12 20 9 4 15 13 4 6 11 12 13 11 9
8 6 2 4 11 8 2 4 4 9 17 8 3 13 16 9 5 4 3 6 10 11 8 7 5 4 7 10 8 9 11 9 8 9 7 6 9 12 13 11 9 8 6 5 5 5 5 5 6 8 9 11 12 9 9 10 7 6 7 6 6 4 4 5 5 9 19 26 25 20 15 5 -2 10 17 6 5 14 12 8 11 8 9 18 19 11
5 5 2 0 7 8 3 6 6 5 8 7 4 9 13 9 5 5 7 5 6 7 7 6 4 5 7 6 5 6 3 2 6 8 8 10 10 10 14 16 13 10 6 4 4 5 7 9 9 10 11 10 9 7 7 8 8 9 9 9 10 9 6 7 7 6 5 12 24 27 18 4 0 11 17 9 6 7 5 9 13 8 7 17 19 11
5 6 7 3 3 8 11 10 7 7 9 7 5 6 9 8 2 2 5 5 4 3 4 4 3 3 4 4 5 3 2 10 17 12 7 8 6 5 8 12 14 14 12 11 11 10 10 10 10 10 10 8 7 6 7 8 8 9 9 7 7 8 8 7 8 10 6 3 8 15 17 12 5 9 17 16 10 4 2 8 14 12 8 11 12 7
7 4 8 7 2 5 14 13 7 6 6 8 9 7 7 8 3 1 2 1 2 2 3 3 1 1 3 5 7 5 6 11 8 0 1 5 3 2 1 1 2 5 7 8 9 9 8 7 7 9 9 8 8 8 9 9 9 10 10 10 8 6 7 9 9 10 11 10 4 -2 1 8 9 10 13 13 11 7 5 6 13 14 8 9 9 6
11 6 5 6 -0 -4 3 8 7 3 -1 2 9 9 10 10 6 3 2 0 1 2 2 2 -0 0 2 3 5 5 5 4 -5 -7 -1 3 0 0 3 5 2 1 4 6 6 5 5 6 7 7 7 8 9 10 11 11 12 12 10 10 10 8 8 9 12 11 10 13 12 1 -4 1 7 10 11 11 9 7 6 8 17 20 11 8 8 7
10 9 7 6 3 -1 -1 3 7 7 2 -0 2 3 6 8 9 9 6 3 4 4 5 5 3 3 4 6 8 8 10 10 7 7 9 9 10 15 18 17 11 6 6 5 3 3 4 5 6 7 8 8 9 9 11 11 11 12 13 11 10 10 10 9 11 12 9 9 12 11 6 6 10 10 10 12 9 5 7 8 13 18 12 8 9 7
9 10 8 8 7 6 4 3 3 5 6 5 4 3 3 4 9 16 13 7 4 4 6 6 4 5 8 10 13 12 11 13 13 13 14 15 16 15 10 9 10 10 9 8 6 4 5 5 5 7 7 6 6 6 7 8 9 10 12 12 11 9 10 10 10 10 9 7 8 9 7 8 11 11 10 12 9 8 13 12 9 10 10 11 11 9
7 8 8 9 9 7 8 8 5 3 5 7 6 6 4 2 3 11 15 13 6 1 2 2 1 5 7 6 7 7 8 11 9 8 9 8 3 -4 -10 -8 0 7 8 7 6 6 7 8 7 6 5 4 4 4 4 5 6 7 9 11 13 11 10 11 11 11 10 8 6 7 7 7 8 10 12 12 10 10 11 10 11 13 14 15 13 9
7 4 4 7 8 7 8 10 11 10 8 8 8 9 9 6 1 -0 2 8 9 7 5 4 6 10 9 2 1 2 5 8 8 5 5 3 0 1 3 5 5 5 5 5 4 5 6 7 6 5 4 4 4 4 5 4 4 5 6 8 11 12 12 11 11 11 11 9 7 6 8 9 8 9 11 11 10 13 13 9 10 15 18 15 11 10
16 9 3 2 3 4 5 6 7 8 9 9 8 7 10 12 11 7 1 1 5 8 9 9 11 12 9 5 3 2 3 5 7 7 5 6 7 8 12 19 21 16 9 5 4 5 6 5 4 3 2 3 3 3 4 4 4 5 5 5 7 9 12 13 12 12 11 11 10 7 7 10 12 13 13 13 11 11 14 14 10 13 18 12 7 12
18 21 17 11 6 2 2 4 2 1 4 5 3 3 8 12 15 16 14 7 1 3 10 16 14 10 10 11 10 7 4 3 7 9 9 9 9 3 0 9 20 20 12 6 5 5 5 5 3 2 2 2 3 3 3 4 5 4 4 5 5 5 8 11 13 14 14 13 13 11 8 8 11 14 16 18 16 9 10 17 15 13 17 11 7 13
10 16 20 22 20 13 7 8 11 9 8 10 14 18 17 17 19 19 17 13 6 3 9 14 13 10 12 16 17 14 13 14 13 11 10 9 9 6 2 3 10 15 12 7 5 4 5 5 5 5 4 4 4 3 4 5 5 5 5 5 5 5 5 7 10 12 14 15 14 14 14 11 9 13 18 21 17 10 10 17 17 17 19 11 8 14
9 10 11 14 19 21 16 14 17 17 12 12 19 23 19 19 24 25 20 17 12 9 7 6 5 5 7 9 10 12 19 25 23 16 10 9 8 8 6 6 10 14 12 8 7 6 6 6 6 5 5 6 7 6 7 7 7 7 7 6 6 6 4 5 8 10 10 11 10 11 14 14 11 12 19 24 20 14 14 14 11 14 14 8 8 15
9 9 10 9 11 16 18 18 19 22 24 23 20 15 12 13 18 21 20 18 17 16 15 12 10 9 8 6 8 10 13 15 17 16 13 12 10 8 6 7 12 16 15 13 12 11 10 9 8 8 7 6 7 8 7 8 8 8 8 7 7 7 6 5 6 8 10 10 9 8 9 12 12 12 20 24 16 12 13 8 9 18 15 5 7 16
9 8 9 9 8 8 11 15 19 21 25 27 22 14 10 10 11 14 15 13 12 12 14 14 14 12 11 8 6 4 1 -2 2 6 7 9 11 12 13 13 12 10 8 8 9 10 12 12 8 5 5 6 6 7 6 6 7 8 8 8 7 6 7 6 5 7 9 10 11 9 8 10 11 13 22 21 10 11 12 -0 6 37 47 23 7 11
13 11 10 9 8 7 5 7 9 9 8 9 10 11 11 10 11 12 13 12 11 10 8 9 10 11 12 11 8 5 3 2 3 3 4 5 7 8 10 12 12 10 7 7 7 7 8 7 5 3 5 6 7 7 6 5 6 7 6 6 7 7 7 7 7 7 7 10 12 9 8 11 9 12 21 22 22 33 30 6 -1 25 45 32 15 13
13 13 12 12 12 11 9 6 4 3 2 2 2 4 5 6 7 9 11 12 13 13 13 11 11 10 11 12 12 12 10 10 9 8 8 8 7 6 6 7 8 9 9 10 10 10 8 6 6 8 9 9 9 7 6 5 5 5 5 5 6 6 5 6 7 6 6 8 10 10 9 9 8 10 16 23 33 36 21 3 -0 7 16 23 28 30
12 11 12 14 14 14 13 12 10 8 8 7 7 8 7 8 8 7 7 8 8 9 11 10 10 11 11 11 11 11 9 9 8 7 7 6 5 5 4 5 6 7 9 10 11 12 12 10 9 9 9 9 8 7 7 7 5 4 4 5 5 5 5 5 5 6 6 6 8 10 10 8 9 10 9 18 36 33 9 -3 2 6 11 15 18 24
9 10 10 11 12 12 10 9 10 10 10 9 9 10 10 10 12 13 13 13 13 13 13 12 11 11 11 11 12 11 10 9 8 7 6 6 6 6 5 5 7 9 10 10 9 10 11 11 10 8 7 7 6 5 5 6 7 6 6 6 5 5 6 5 4 5 6 6 7 8 8 9 10 10 11 20 31 28 15 9 4 3 10 8 4 17
9 9 10 11 10 11 11 11 12 12 14 14 12 12 12 12 13 14 14 13 14 16 17 19 18 17 16 15 15 15 15 15 14 13 13 12 12 12 12 12 12 13 14 13 13 12 11 10 10 10 10 11 11 10 7 5 6 7 7 8 7 5 6 6 5 7 7 6 6 7 8 9 10 11 15 21 20 13 10 14 11 6 10 17 20 24
14 13 14 16 15 13 14 15 15 13 13 14 13 14 14 12 10 10 10 10 10 10 12 14 15 16 16 16 15 16 17 17 17 17 16 15 15 14 14 15 15 15 16 16 17 18 17 17 17 17 17 18 18 18 15 11 9 9 10 10 9 8 9 9 8 9 9 8 7 6 7 8 8 10 11 12 20 30 28 22 15 0 -2 20 39 31
16 17 17 15 16 18 16 14 13 13 13 13 14 14 14 13 12 12 11 12 12 11 9 8 9 9 9 9 9 10 10 11 11 11 11 11 11 11 10 10 11 11 12 12 13 14 15 15 16 16 17 18 18 19 20 19 18 17 15 15 12 10 10 10 9 9 8 8 8 8 9 9 6 8 9 5 13 27 23 10 4 -6 -8 14 37 34
12 14 14 12 13 15 15 13 11 10 11 11 11 10 11 12 12 13 14 12 10 8 6 5 5 6 7 8 9 9 9 9 9 9 9 8 8 8 7 6 6 7 7 7 7 7 8 9 9 10 12 12 12 13 15 18 20 19 19 17 14 11 11 9 8 7 7 9 9 7 9 12 9 8 10 8 8 12 10 3 2 3 6 13 20 22
11 9 8 9 10 8 9 10 9 9 11 13 11 9 10 12 13 13 15 13 9 7 7 8 10 12 12 13 13 13 13 13 12 12 13 12 12 12 11 11 11 10 8 7 7 6 7 7 7 7 7 8 7 8 9 10 11 13 14 15 13 12 13 13 13 12 10 9 10 9 9 11 12 10 10 10 9 9 10 10 8 7 9 9 7 10
12 11 11 11 11 10 10 9 9 11 12 13 17 22 21 18 15 11 12 16 17 17 19 20 19 18 16 15 15 15 15 15 15 14 14 14 14 13 13 12 12 12 11 11 10 10 9 9 9 9 9 8 6 6 8 9 8 6 6 8 9 9 9 11 14 16 15 13 12 12 10 8 9 12 12 12 12 10 9 10 10 8 8 7 4 3
17 18 17 13 11 13 13 12 15 19 20 21 24 23 17 13 14 13 14 17 19 19 19 18 15 13 13 13 13 13 12 11 12 12 12 12 12 13 13 13 12 12 12 11 11 10 9 8 8 8 9 9 8 7 8 9 9 8 5 5 6 7 7 7 9 12 14 15 14 13 11 9 11 13 13 11 11 11 10 8 6 5 7 7 5 5
16 15 14 12 15 17 18 21 24 22 25 32 28 14 7 9 13 14 13 12 11 10 10 10 9 9 8 8 7 7 7 7 8 9 9 10 12 13 14 15 15 15 15 15 14 13 12 10 9 8 7 8 7 7 8 9 9 9 9 8 7 8 8 7 6 8 11 14 15 15 15 14 12 11 11 11 10 10 11 10 9 11 12 10 7 10
11 14 17 17 21 24 23 26 25 15 12 21 20 11 11 16 14 12 12 10 8 8 7 6 6 5 4 5 6 8 9 10 11 12 13 14 16 18 19 19 20 20 20 20 20 19 19 18 17 16 15 14 12 9 8 10 10 8 8 8 8 9 11 10 8 8 10 12 13 14 15 16 13 9 8 9 9 8 9 11 12 13 15 13 7 7
Height
5729 5733 5736 5740 5742 5744 5745 5748 5752 5754 5757 5760 5762 5764 5766 5768 5769 5771 5771 5772 5775 5778 5780 5780 5781 5782 5784 5784 5783 5784 5786 5788 5789 5790 5789 5789 5789 5790 5790 5790 5790 5790 5791 5791 5791 5792 5792 5792 5792 5791 5791 5791 5791 5791 5791 5792 5792 5793 5793 5793 5794 5795 5795 5794 5794 5793 5792 5792 5791 5790 5790 5789 5787 5786 5787 5787 5787 5787 5787 5787 5788 5789 5790 5792 5794 5795
5727 5730 5734 5737 5738 5740 5742 5745 5748 5751 5753 5756 5758 5760 5763 5765 5767 5769 5769 5771 5774 5776 5777 5778 5779 5781 5782 5781 5780 5783 5785 5786 5786 5787 5786 5786 5787 5788 5788 5788 5788 5788 5788 5788 5789 5789 5790 5790 5789 5789 5789 5789 5789 5789 5789 5790 5790 5791 5792 5792 5792 5792 5792 5791 5791 5790 5789 5788 5787 5787 5787 5786 5784 5783 5784 5784 5784 5783 5783 5784 5786 5787 5789 5790 5791 5793
5723 5727 5730 5733 5735 5737 5739 5742 5745 5748 5750 5753 5754 5757 5760 5763 5765 5766 5768 5770 5772 5774 5775 5776 5777 5778 5778 5778 5779 5781 5782 5782 5782 5783 5784 5784 5785 5785 5785 5785 5785 5786 5786 5786 5787 5787 5788 5788 5788 5788 5788 5788 5787 5787 5787 5787 5788 5789 5790 5789 5789 5789 5788 5788 5788 5787 5786 5785 5784 5784 5784 5783 5783 5782 5782 5782 5781 5780 5780 5781 5783 5786 5788 5789 5790 5791
5721 5725 5728 5730 5732 5735 5737 5739 5743 5745 5748 5750 5752 5755 5758 5761 5762 5764 5766 5768 5770 5771 5773 5774 5774 5775 5774 5775 5777 5779 5779 5780 5780 5781 5782 5782 5782 5782 5783 5783 5783 5783 5784 5784 5785 5785 5786 5786 5786 5786 5785 5785 5785 5785 5785 5785 5785 5786 5786 5785 5785 5785 5785 5785 5785 5784 5783 5782 5782 5782 5781 5780 5781 5781 5780 5780 5779 5778 5779 5780 5782 5784 5786 5787 5789 5790
5720 5724 5726 5727 5730 5732 5734 5737 5740 5743 5745 5747 5750 5754 5757 5759 5760 5763 5764 5765 5767 5768 5769 5770 5771 5771 5771 5772 5774 5775 5777 5779 5779 5779 5779 5779 5779 5780 5781 5781 5781 5781 5781 5782 5783 5783 5783 5783 5783 5783 5782 5782 5782 5782 5783 5782 5782 5782 5781 5780 5780 5780 5781 5781 5781 5781 5781 5780 5780 5780 5779 5778 5778 5779 5777 5777 5776 5776 5778 5779 5780 5781 5783 5785 5787 5788
5718 5720 5721 5724 5726 5729 5731 5735 5738 5740 5743 5745 5748 5753 5755 5757 5759 5760 5761 5762 5763 5764 5766 5767 5767 5767 5768 5770 5771 5772 5776 5778 5777 5777 5776 5776 5777 5778 5779 5779 5779 5779 5779 5780 5780 5780 5780 5780 5779 5779 5779 5779 5780 5780 5780 5779 5778 5776 5775 5775 5775 5775 5776 5776 5777 5777 5777 5777 5778 5778 5777 5776 5775 5775 5775 5773 5773 5774 5776 5778 5779 5780 5781 5783 5785 5787
5714 5715 5718 5721 5723 5726 5729 5732 5735 5737 5740 5742 5746 5751 5753 5755 5756 5757 5759 5759 5760 5761 5762 5764 5765 5765 5767 5769 5769 5770 5773 5775 5774 5774 5774 5775 5776 5776 5777 5777 5777 5777 5777 5777 5777 5777 5778 5778 5777 5777 5777 5777 5777 5777 5775 5774 5773 5770 5768 5768 5768 5769 5770 5771 5772 5773 5773 5774 5775 5775 5775 5774 5773 5773 5772 5771 5771 5772 5775 5777 5778 5780 5780 5781 5783 5785
5710 5712 5716 5718 5721 5724 5727 5730 5733 5735 5737 5740 5745 5749 5751 5753 5754 5755 5755 5756 5757 5759 5760 5761 5762 5764 5765 5766 5766 5767 5769 5770 5771 5772 5772 5773 5774 5774 5775 5775 5775 5775 5774 5775 5774 5774 5774 5775 5775 5776 5775 5775 5775 5773 5771 5771 5771 5769 5766 5764 5764 5764 5766 5767 5768 5768 5769 5770 5771 5772 5772 5772 5772 5771 5771 5770 5771 5772 5774 5775 5777 5778 5779 5780 5782 5783
5708 5711 5714 5716 5719 5722 5726 5729 5731 5733 5736 5740 5743 5746 5749 5750 5751 5751 5752 5753 5755 5757 5758 5759 5760 5762 5764 5764 5764 5764 5766 5767 5768 5769 5770 5771 5772 5772 5773 5773 5773 5773 5773 5773 5772 5772 5774 5774 5773 5772 5772 5773 5773 5771 5770 5770 5770 5769 5767 5766 5765 5765 5766 5766 5766 5765 5766 5767 5768 5769 5769 5770 5770 5769 5770 5770 5770 5772 5773 5774 5775 5776 5778 5779 5780 5780
5706 5709 5711 5713 5717 5720 5724 5727 5729 5731 5734 5738 5740 5743 5746 5747 5748 5748 5749 5751 5753 5754 5756 5756 5758 5760 5761 5761 5760 5761 5763 5765 5766 5767 5767 5768 5768 5769 5769 5770 5770 5771 5771 5771 5770 5770 5772 5774 5772 5771 5770 5770 5770 5770 5769 5767 5767 5767 5767 5766 5765 5765 5765 5765 5764 5763 5763 5765 5765 5766 5766 5767 5768 5768 5768 5769 5769 5770 5772 5772 5773 5774 5775 5776 5777 5778
5703 5705 5707 5711 5714 5718 5721 5723 5726 5729 5732 5734 5737 5739 5742 5744 5745 5746 5748 5749 5751 5752 5753 5754 5756 5757 5758 5757 5758 5759 5761 5762 5763 5764 5765 5765 5765 5765 5765 5766 5767 5768 5768 5768 5768 5768 5768 5770 5770 5769 5768 5766 5766 5768 5767 5764 5764 5764 5765 5764 5764 5763 5762 5762 5761 5760 5761 5761 5761 5762 5763 5764 5765 5766 5766 5767 5768 5769 5770 5770 5771 5772 5773 5774 5776 5777
5700 5702 5706 5709 5713 5716 5718 5720 5723 5727 5729 5731 5733 5736 5739 5741 5742 5744 5745 5746 5748 5750 5750 5752 5754 5754 5754 5754 5755 5757 5759 5760 5761 5761 5762 5762 5762 5762 5762 5763 5763 5764 5764 5765 5765 5765 5765 5766 5766 5766 5765 5763 5762 5764 5764 5761 5761 5762 5762 5761 5760 5759 5758 5757 5756 5757 5758 5757 5756 5757 5759 5760 5762 5764 5764 5765 5767 5768 5769 5769 5769 5770 5772 5773 5774 5775
5698 5701 5705 5708 5711 5713 5715 5718 5721 5724 5727 5729 5730 5733 5735 5737 5739 5740 5741 5743 5746 5747 5748 5750 5751 5750 5751 5752 5753 5755 5757 5758 5758 5758 5759 5759 5760 5760 5760 5760 5760 5760 5761 5761 5761 5761 5762 5762 5762 5762 5761 5759 5758 5759 5759 5758 5759 5761 5759 5757 5756 5755 5754 5753 5752 5754 5757 5755 5752 5751 5754 5757 5759 5761 5763 5764 5765 5766 5767 5767 5767 5768 5769 5770 5771 5771
5697 5701 5704 5706 5709 5711 5713 5716 5719 5722 5725 5727 5729 5730 5732 5734 5736 5737 5738 5741 5743 5744 5746 5747 5748 5748 5748 5749 5750 5752 5754 5755 5756 5756 5756 5757 5757 5757 5757 5757 5757 5757 5758 5758 5758 5758 5758 5759 5759 5759 5758 5757 5756 5755 5756 5756 5757 5757 5755 5753 5752 5752 5751 5751 5750 5752 5754 5754 5751 5749 5751 5754 5757 5759 5761 5762 5763 5763 5764 5765 5765 5766 5766 5766 5767 5768
5697 5700 5702 5705 5708 5710 5713 5716 5719 5722 5724 5726 5726 5727 5728 5730 5732 5734 5736 5739 5741 5742 5743 5745 5746 5746 5746 5746 5747 5749 5752 5753 5754 5754 5754 5755 5754 5754 5755 5755 5755 5755 5756 5756 5756 5756 5756 5756 5756 5756 5755 5754 5754 5753 5752 5753 5754 5754 5753 5750 5748 5749 5749 5749 5748 5749 5751 5752 5751 5750 5751 5753 5755 5757 5759 5761 5761 5761 5763 5764 5764 5764 5764 5764 5764 5765
5695 5698 5701 5704 5706 5709 5713 5715 5718 5720 5721 5722 5723 5724 5725 5727 5729 5732 5734 5737 5739 5741 5742 5743 5743 5743 5744 5744 5745 5747 5749 5751 5752 5752 5752 5753 5753 5753 5753 5753 5753 5753 5753 5753 5753 5753 5753 5753 5753 5753 5753 5752 5751 5750 5749 5750 5750 5751 5750 5747 5745 5746 5747 5747 5746 5747 5749 5751 5752 5752 5751 5752 5753 5754 5756 5758 5758 5760 5761 5761 5761 5761 5762 5762 5762 5763
5695 5697 5700 5702 5705 5708 5711 5714 5715 5717 5718 5719 5720 5722 5723 5725 5727 5730 5732 5734 5737 5738 5739 5739 5740 5740 5742 5743 5743 5745 5746 5747 5749 5750 5750 5751 5752 5752 5752 5751 5751 5751 5750 5750 5750 5751 5751 5750 5751 5751 5750 5750 5748 5747 5746 5746 5747 5747 5746 5745 5743 5743 5744 5744 5744 5744 5745 5747 5748 5748 5747 5748 5749 5750 5751 5753 5755 5757 5758 5758 5757 5757 5757 5758 5759 5759
5694 5696 5698 5701 5704 5707 5709 5711 5713 5714 5715 5716 5718 5720 5722 5723 5724 5726 5728 5730 5733 5734 5735 5736 5736 5738 5739 5740 5741 5742 5743 5744 5746 5747 5748 5749 5750 5750 5750 5749 5749 5749 5749 5748 5748 5748 5748 5748 5748 5748 5748 5747 5745 5744 5743 5743 5743 5743 5742 5741 5740 5741 5742 5742 5742 5742 5740 5740 5740 5740 5741 5744 5745 5745 5747 5749 5750 5752 5753 5754 5753 5753 5753 5754 5755 5755
5692 5694 5696 5699 5702 5705 5707 5708 5709 5710 5712 5714 5716 5718 5719 5720 5721 5723 5724 5726 5729 5730 5731 5732 5733 5735 5736 5737 5738 5740 5740 5742 5743 5744 5746 5747 5748 5748 5747 5747 5747 5747 5747 5746 5746 5745 5745 5745 5745 5745 5745 5744 5743 5742 5741 5740 5740 5739 5738 5738 5738 5739 5739 5739 5739 5738 5736 5736 5736 5736 5738 5740 5742 5743 5745 5746 5746 5747 5749 5750 5751 5751 5751 5751 5751 5751
5689 5692 5693 5696 5700 5702 5703 5704 5706 5707 5709 5711 5714 5714 5715 5717 5719 5721 5723 5724 5726 5727 5728 5730 5731 5732 5733 5735 5735 5736 5738 5740 5741 5743 5743 5744 5744 5745 5744 5744 5744 5744 5744 5744 5743 5743 5742 5742 5742 5741 5741 5740 5740 5740 5739 5738 5737 5735 5735 5736 5736 5737 5737 5736 5736 5735 5734 5733 5733 5734 5737 5739 5741 5742 5743 5744 5744 5745 5747 5748 5748 5748 5748 5749 5750 5750
5687 5690 5692 5694 5697 5699 5700 5702 5704 5705 5707 5709 5712 5713 5713 5715 5716 5718 5721 5722 5724 5725 5726 5727 5728 5730 5732 5732 5733 5734 5736 5738 5739 5740 5740 5741 5741 5742 5741 5741 5741 5741 5741 5741 5740 5739 5739 5739 5739 5739 5738 5737 5738 5738 5737 5736 5735 5733 5733 5734 5735 5735 5735 5734 5733 5732 5731 5730 5731 5733 5735 5738 5740 5741 5741 5741 5741 5743 5745 5745 5744 5745 5745 5746 5749 5750
5685 5688 5690 5692 5695 5697 5698 5700 5702 5704 5705 5707 5710 5711 5712 5713 5714 5717 5718 5720 5721 5722 5723 5724 5726 5728 5729 5729 5730 5732 5734 5736 5737 5737 5738 5738 5739 5739 5739 5739 5738 5738 5738 5737 5737 5736 5736 5736 5736 5736 5735 5735 5735 5736 5735 5734 5734 5733 5733 5733 5733 5734 5734 5732 5731 5729 5728 5728 5728 5730 5732 5735 5738 5739 5739 5739 5740 5741 5741 5741 5741 5742 5743 5744 5745 5748
5683 5685 5687 5690 5692 5694 5696 5698 5700 5703 5704 5705 5707 5709 5710 5712 5713 5715 5716 5718 5719 5720 5721 5722 5724 5725 5725 5727 5729 5731 5732 5733 5734 5735 5735 5736 5737 5737 5737 5737 5736 5736 5736 5735 5734 5734 5734 5734 5734 5734 5733 5733 5734 5734 5734 5733 5733 5732 5732 5732 5732 5732 5732 5731 5729 5728 5728 5727 5727 5728 5730 5732 5734 5735 5736 5738 5739 5739 5738 5739 5739 5740 5740 5741 5742 5744
5681 5683 5685 5687 5689 5691 5694 5696 5698 5700 5701 5703 5704 5706 5708 5710 5711 5713 5715 5717 5718 5719 5720 5720 5721 5722 5724 5727 5728 5729 5730 5731 5732 5733 5733 5734 5735 5735 5735 5734 5734 5733 5733 5733 5732 5732 5732 5732 5732 5732 5732 5732 5732 5732 5732 5732 5731 5731 5731 5731 5730 5730 5729 5729 5728 5728 5727 5727 5727 5728 5729 5730 5730 5730 5731 5734 5737 5736 5735 5736 5737 5737 5738 5738 5739 5741
5679 5681 5683 5685 5687 5688 5690 5693 5695 5697 5699 5701 5702 5704 5706 5708 5709 5711 5713 5714 5715 5717 5718 5719 5719 5721 5723 5726 5726 5727 5728 5729 5730 5731 5732 5733 5733 5733 5733 5732 5732 5731 5731 5731 5730 5730 5729 5729 5730 5730 5730 5729 5729 5729 5730 5730 5729 5729 5729 5729 5729 5729 5728 5727 5727 5727 5727 5727 5727 5727 5728 5728 5728 5727 5728 5731 5734 5733 5732 5733 5734 5735 5735 5736 5737 5738
5678 5680 5681 5684 5685 5686 5688 5691 5693 5695 5697 5698 5700 5702 5704 5706 5707 5709 5711 5712 5714 5715 5716 5716 5718 5720 5722 5723 5724 5725 5726 5727 5728 5729 5730 5731 5732 5732 5731 5730 5730 5729 5729 5729 5728 5728 5727 5727 5727 5727 5727 5727 5727 5727 5727 5727 5727 5727 5727 5727 5727 5727 5727 5726 5725 5725 5725 5726 5726 5727 5727 5727 5726 5725 5726 5730 5731 5729 5729 5730 5731 5732 5733 5734 5736 5736
5677 5679 5680 5683 5685 5687 5689 5691 5693 5695 5696 5698 5699 5700 5702 5704 5706 5707 5709 5710 5712 5713 5713 5714 5716 5718 5719 5721 5722 5723 5724 5725 5726 5727 5728 5729 5729 5729 5729 5729 5728 5728 5727 5727 5726 5726 5725 5725 5725 5725 5725 5724 5724 5724 5725 5725 5725 5725 5725 5725 5725 5725 5725 5724 5723 5723 5723 5724 5725 5726 5726 5725 5724 5724 5725 5728 5727 5726 5726 5728 5729 5729 5730 5731 5732 5734
5676 5678 5679 5681 5683 5685 5687 5689 5692 5693 5695 5696 5697 5699 5701 5702 5704 5705 5707 5708 5709 5710 5711 5712 5714 5716 5717 5718 5719 5720 5722 5723 5724 5725 5726 5726 5726 5726 5727 5727 5726 5726 5725 5725 5724 5724 5723 5723 5723 5723 5723 5722 5722 5722 5722 5723 5723 5723 5723 5722 5723 5723 5723 5722 5722 5721 5721 5721 5723 5723 5724 5723 5722 5722 5723 5724 5723 5723 5724 5725 5725 5726 5727 5728 5729 5731
5675 5676 5678 5679 5681 5682 5684 5687 5689 5691 5693 5694 5696 5697 5699 5700 5702 5703 5705 5706 5707 5708 5709 5711 5712 5713 5714 5715 5716 5717 5719 5720 5721 5722 5723 5723 5723 5723 5723 5724 5724 5724 5724 5723 5722 5722 5721 5721 5721 5721 5721 5720 5720 5720 5720 5720 5721 5721 5721 5720 5720 5720 5720 5720 5719 5719 5719 5719 5720 5720 5721 5720 5719 5719 5719 5719 5720 5720 5720 5720 5722 5723 5724 5725 5726 5727
5673 5675 5676 5678 5679 5681 5682 5684 5686 5688 5690 5692 5694 5695 5697 5698 5700 5701 5702 5703 5704 5705 5706 5708 5709 5711 5712 5713 5713 5715 5716 5717 5718 5719 5720 5720 5720 5720 5720 5721 5721 5721 5721 5721 5721 5720 5720 5719 5719 5719 5718 5718 5718 5718 5718 5718 5718 5718 5719 5718 5717 5717 5717 5717 5717 5717 5716 5716 5716 5717 5717 5716 5715 5715 5715 5716 5717 5717 5717 5717 5717 5719 5720 5721 5722 5723
5671 5673 5674 5677 5678 5679 5680 5682 5683 5685 5687 5689 5691 5693 5694 5696 5697 5698 5699 5700 5701 5702 5703 5705 5706 5708 5709 5710 5711 5712 5712 5714 5715 5716 5717 5717 5717 5717 5718 5718 5718 5718 5718 5719 5718 5718 5718 5717 5717 5716 5716 5716 5716 5716 5716 5715 5715 5715 5716 5715 5715 5715 5715 5715 5715 5715 5714 5713 5712 5712 5713 5713 5712 5711 5712 5713 5713 5713 5713 5713 5713 5714 5716 5718 5718 5719
5668 5670 5672 5675 5676 5677 5678 5680 5681 5683 5684 5686 5688 5689 5691 5692 5694 5695 5696 5697 5698 5699 5700 5702 5703 5705 5706 5707 5708 5708 5709 5710 5712 5713 5714 5715 5714 5714 5714 5715 5715 5715 5715 5716 5716 5715 5715 5715 5714 5714 5714 5713 5713 5713 5713 5713 5713 5713 5712 5712 5712 5712 5712 5712 5712 5712 5712 5711 5710 5709 5709 5709 5708 5708 5709 5709 5709 5710 5710 5710 5710 5711 5713 5715 5715 5715
5666 5667 5670 5672 5674 5675 5676 5677 5678 5680 5682 5683 5684 5686 5687 5689 5690 5692 5693 5694 5695 5696 5697 5699 5700 5702 5703 5704 5705 5705 5706 5707 5708 5710 5711 5711 5710 5711 5711 5711 5711 5712 5712 5712 5712 5712 5712 5712 5712 5712 5711 5711 5710 5710 5710 5710 5710 5710 5709 5709 5709 5709 5709 5709 5709 5710 5710 5709 5708 5706 5705 5705 5705 5705 5705 5706 5706 5707 5707 5707 5707 5708 5710 5711 5711 5712
5662 5664 5666 5668 5670 5672 5672 5674 5676 5677 5678 5680 5681 5683 5684 5686 5687 5689 5690 5691 5692 5693 5695 5696 5697 5698 5699 5700 5701 5702 5702 5703 5704 5706 5707 5707 5707 5708 5708 5708 5708 5709 5709 5709 5709 5709 5709 5709 5709 5709 5708 5708 5708 5707 5707 5707 5707 5707 5707 5706 5706 5706 5706 5706 5707 5707 5707 5706 5705 5704 5703 5702 5701 5701 5701 5702 5703 5703 5704 5704 5705 5705 5707 5707 5707 5708
5659 5661 5663 5665 5667 5668 5669 5671 5673 5673 5674 5677 5679 5679 5681 5682 5683 5685 5687 5688 5690 5691 5692 5693 5694 5695 5696 5697 5698 5698 5699 5700 5701 5702 5703 5703 5704 5705 5705 5705 5706 5706 5706 5705 5705 5705 5705 5705 5705 5706 5705 5705 5705 5704 5704 5704 5704 5704 5704 5704 5704 5703 5703 5704 5703 5703 5703 5703 5702 5701 5700 5699 5698 5697 5697 5698 5698 5698 5699 5700 5701 5701 5702 5703 5704 5705
5657 5659 5660 5662 5664 5665 5667 5668 5669 5670 5671 5674 5675 5676 5677 5679 5680 5682 5683 5685 5687 5688 5689 5690 5691 5692 5693 5694 5695 5695 5696 5697 5697 5698 5699 5699 5700 5701 5701 5702 5703 5703 5702 5702 5702 5702 5702 5702 5702 5702 5702 5702 5702 5701 5701 5701 5701 5701 5701 5701 5701 5701 5700 5700 5700 5700 5700 5700 5699 5698 5697 5697 5695 5694 5693 5694 5694 5694 5695 5695 5696 5697 5698 5699 5700 5701
5654 5656 5658 5659 5661 5663 5664 5666 5667 5668 5669 5671 5672 5673 5675 5676 5677 5679 5681 5682 5684 5685 5686 5687 5687 5688 5689 5690 5691 5692 5693 5693 5694 5694 5695 5695 5696 5697 5698 5698 5699 5699 5699 5699 5699 5699 5699 5699 5699 5699 5699 5699 5698 5698 5698 5698 5698 5698 5698 5698 5698 5698 5697 5697 5697 5697 5697 5696 5696 5695 5694 5694 5693 5691 5690 5690 5690 5690 5690 5691 5693 5693 5693 5695 5697 5697
5652 5653 5655 5657 5659 5660 5662 5663 5665 5666 5667 5668 5669 5671 5672 5673 5675 5677 5678 5680 5681 5682 5683 5684 5684 5685 5686 5687 5688 5689 5690 5690 5691 5691 5692 5692 5692 5693 5693 5694 5695 5695 5695 5695 5695 5695 5695 5696 5696 5696 5695 5695 5695 5694 5694 5694 5694 5694 5694 5694 5695 5695 5694 5694 5694 5694 5693 5693 5693 5692 5691 5690 5690 5688 5687 5686 5686 5686 5687 5688 5689 5688 5688 5691 5693 5693
5649 5651 5653 5654 5656 5658 5659 5661 5662 5664 5665 5666 5667 5668 5669 5671 5673 5674 5675 5677 5678 5679 5680 5681 5682 5682 5683 5684 5685 5685 5686 5686 5687 5687 5688 5688 5688 5689 5689 5690 5691 5691 5691 5691 5691 5691 5691 5692 5693 5692 5692 5692 5691 5691 5691 5691 5690 5690 5690 5690 5691 5691 5691 5691 5690 5690 5690 5690 5689 5689 5688 5687 5686 5685 5684 5683 5683 5683 5683 5684 5685 5685 5686 5687 5688 5689
5647 5649 5650 5652 5654 5655 5657 5658 5660 5661 5662 5664 5665 5666 5667 5669 5670 5672 5673 5674 5675 5676 5677 5678 5679 5679 5680 5680 5681 5682 5682 5682 5683 5683 5684 5684 5684 5685 5685 5686 5686 5687 5687 5687 5687 5687 5687 5688 5688 5688 5687 5687 5687 5687 5687 5687 5686 5686 5686 5686 5687 5687 5687 5687 5687 5687 5686 5686 5686 5685 5685 5684 5683 5682 5681 5680 5680 5680 5681 5682 5682 5683 5685 5685 5685 5686
5644 5646 5648 5649 5651 5652 5654 5655 5657 5658 5660 5661 5662 5664 5665 5667 5668 5669 5670 5672 5673 5674 5674 5675 5675 5676 5676 5677 5677 5678 5678 5679 5679 5679 5680 5680 5680 5680 5681 5682 5682 5682 5682 5682 5682 5682 5682 5682 5682 5682 5682 5683 5683 5683 5683 5682 5682 5682 5682 5682 5682 5682 5682 5683 5683 5683 5682 5682 5682 5682 5681 5681 5680 5679 5678 5678 5678 5678 5679 5680 5680 5681 5682 5683 5684 5685
5642 5644 5645 5647 5649 5650 5651 5653 5654 5656 5657 5658 5660 5661 5662 5664 5665 5666 5668 5668 5669 5670 5671 5672 5672 5673 5673 5673 5674 5674 5675 5675 5675 5676 5676 5676 5676 5676 5676 5677 5677 5677 5677 5677 5677 5677 5677 5677 5677 5677 5677 5677 5678 5678 5677 5677 5677 5678 5678 5678 5678 5678 5678 5678 5678 5678 5678 5678 5678 5678 5677 5677 5677 5676 5676 5676 5675 5675 5675 5677 5678 5678 5679 5679 5680 5681
5640 5642 5643 5645 5646 5648 5649 5651 5652 5654 5655 5656 5657 5659 5660 5661 5662 5664 5665 5665 5666 5667 5668 5669 5669 5669 5670 5670 5670 5671 5672 5672 5672 5672 5672 5672 5672 5672 5672 5672 5673 5673 5673 5673 5672 5672 5672 5672 5672 5671 5671 5671 5672 5672 5672 5672 5672 5673 5674 5674 5673 5673 5673 5673 5674 5674 5674 5674 5674 5674 5674 5674 5673 5673 5673 5673 5673 5672 5671 5672 5673 5674 5674 5675 5675 5676
5638 5639 5641 5642 5644 5645 5647 5649 5650 5651 5653 5654 5655 5656 5657 5658 5659 5661 5662 5663 5664 5664 5665 5666 5666 5667 5667 5667 5668 5668 5669 5669 5669 5669 5669 5669 5669 5669 5669 5669 5669 5669 5668 5668 5668 5667 5667 5667 5667 5666 5666 5666 5666 5666 5666 5666 5666 5668 5669 5669 5668 5668 5668 5668 5669 5669 5669 5669 5669 5670 5670 5671 5671 5671 5671 5670 5670 5670 5669 5669 5670 5671 5671 5672 5673 5672
5636 5638 5639 5640 5642 5643 5645 5646 5647 5649 5650 5651 5652 5653 5654 5655 5657 5658 5659 5660 5661 5662 5663 5663 5664 5664 5665 5665 5666 5666 5666 5666 5666 5666 5666 5666 5666 5666 5666 5666 5666 5665 5665 5664 5664 5663 5663 5663 5662 5662 5661 5661 5661 5661 5661 5661 5662 5662 5663 5663 5664 5664 5664 5664 5664 5664 5664 5664 5665 5665 5666 5667 5667 5667 5668 5668 5668 5669 5668 5668 5668 5667 5668 5669 5670 5670
5635 5636 5637 5638 5640 5641 5642 5644 5645 5646 5648 5649 5650 5651 5652 5653 5654 5655 5657 5658 5659 5660 5661 5662 5662 5663 5663 5663 5663 5664 5664 5664 5664 5664 5664 5664 5663 5663 5663 5663 5662 5662 5661 5661 5660 5660 5659 5659 5658 5658 5657 5657 5657 5657 5657 5657 5657 5657 5657 5658 5659 5659 5659 5659 5659 5659 5659 5660 5660 5660 5661 5662 5662 5663 5664 5665 5665 5665 5666 5665 5665 5665 5665 5665 5666 5666
5633 5634 5635 5637 5638 5639 5641 5642 5643 5644 5646 5647 5648 5649 5650 5651 5653 5654 5655 5656 5657 5658 5659 5660 5660 5661 5661 5661 5662 5662 5662 5662 5662 5661 5661 5661 5660 5660 5659 5659 5658 5658 5657 5657 5656 5656 5655 5655 5654 5653 5653 5652 5652 5652 5652 5652 5652 5653 5653 5653 5654 5654 5654 5654 5654 5655 5655 5655 5655 5656 5656 5657 5658 5658 5659 5660 5661 5661 5661 5661 5661 5661 5662 5662 5662 5662
5631 5632 5634 5635 5637 5638 5639 5640 5641 5642 5644 5645 5646 5647 5649 5650 5651 5653 5654 5655 5656 5657 5658 5658 5659 5659 5659 5660 5660 5660 5660 5659 5659 5659 5658 5658 5657 5656 5656 5655 5654 5654 5653 5652 5652 5651 5651 5650 5649 5649 5648 5647 5647 5647 5647 5646 5647 5648 5649 5649 5649 5649 5649 5650 5650 5650 5650 5650 5651 5651 5651 5652 5653 5653 5654 5655 5656 5657 5657 5657 5658 5658 5658 5659 5659 5659
5629 5631 5633 5634 5635 5636 5637 5639 5640 5641 5642 5643 5645 5646 5648 5649 5650 5652 5653 5654 5655 5656 5656 5657 5658 5658 5658 5658 5658 5658 5658 5657 5657 5656 5656 5655 5654 5653 5652 5651 5650 5649 5649 5648 5647 5647 5646 5645 5644 5644 5643 5642 5642 5642 5641 5641 5642 5642 5643 5643 5643 5643 5644 5644 5645 5645 5646 5646 5646 5647 5647 5647 5648 5648 5650 5651 5651 5652 5653 5653 5653 5654 5654 5654 5655 5655
5628 5629 5631 5632 5634 5635 5636 5637 5638 5640 5641 5642 5644 5645 5647 5649 5650 5651 5652 5653 5654 5655 5655 5656 5656 5656 5657 5657 5657 5656 5656 5656 5655 5654 5653 5652 5651 5650 5649 5648 5647 5645 5644 5643 5643 5642 5641 5640 5639 5638 5638 5637 5637 5636 5636 5636 5636 5636 5637 5637 5638 5638 5638 5638 5639 5640 5641 5641 5642 5642 5642 5643 5643 5644 5644 5645 5646 5647 5648 5648 5649 5649 5649 5650 5650 5651
5627 5629 5630 5631 5632 5634 5635 5636 5638 5639 5640 5642 5644 5645 5647 5648 5649 5650 5651 5652 5653 5653 5654 5655 5655 5655 5655 5656 5655 5655 5655 5654 5653 5652 5651 5650 5649 5647 5646 5644 5643 5642 5640 5639 5638 5637 5635 5634 5634 5633 5632 5632 5631 5631 5630 5630 5630 5630 5631 5631 5631 5631 5632 5632 5633 5634 5635 5636 5637 5637 5637 5638 5638 5639 5639 5640 5641 5642 5642 5643 5643 5644 5644 5645 5646 5646